EW4074 Weather Reports


Display with metric or nautical units.
time (UTC)temp
F
wind
direction
speed
MPH
gust
MPH
rain 1hr
in
rain 24hr
in
rain mn
in
humidity
%
barometer
mb
20260831151428 81 171 1.0 4.0 0.00 0.14 0.00 81 1049.2
20260831151145 81 209 1.0 4.0 0.00 0.14 0.00 80 1049.2
20260831150415 81 161 0.0 2.0 0.00 0.14 0.00 82 1049.3
20260831145909 81 288 0.0 1.0 0.00 0.14 0.00 81 1049.3
20260831145404 80 344 1.0 3.0 0.00 0.14 0.00 82 1049.3
20260831144852 79 182 1.0 3.0 0.00 0.14 0.00 83 1048.9
20260831144351 79 157 0.0 2.0 0.00 0.14 0.00 85 1048.9
20260831144106 78 138 0.0 1.0 0.00 0.14 0.00 86 1048.9
20260831143338 78 83 0.0 1.0 0.00 0.14 0.00 87 1048.9
20260831142832 78 94 0.0 1.0 0.00 0.14 0.00 87 1048.9
20260831142327 78 96 0.0 2.0 0.00 0.14 0.00 87 1049.1
20260831141820 78 96 0.0 2.0 0.00 0.14 0.00 86 1049.1
20260831141542 78 207 0.0 0.0 0.00 0.14 0.00 87 1049.1
20260831140808 78 207 0.0 0.0 0.00 0.14 0.00 87 1049.1
20260831140302 78 205 0.0 2.0 0.00 0.14 0.00 86 1049.1
20260831135756 78 121 1.0 2.0 0.00 0.14 0.00 87 1049.1
20260831135251 78 187 1.0 3.0 0.00 0.14 0.00 87 1049.2
20260831135006 78 153 1.0 3.0 0.00 0.14 0.00 87 1049.2
20260831134238 78 130 0.0 2.0 0.00 0.14 0.00 87 1049.2
20260831133728 78 186 1.0 3.0 0.00 0.14 0.00 87 1049.3
20260831133226 77 130 1.0 3.0 0.00 0.14 0.00 88 1049.3
20260831132720 77 203 1.0 3.0 0.00 0.14 0.00 89 1049.3
20260831132213 76 212 1.0 3.0 0.00 0.14 0.00 89 1049.2
20260831131710 76 127 0.0 1.0 0.00 0.14 0.00 92 1049.2
20260831131202 75 127 0.0 2.0 0.00 0.14 0.00 92 1049.2
20260831130657 75 131 0.0 2.0 0.00 0.14 0.00 93 1049.3
20260831130146 75 237 0.0 0.0 0.00 0.14 0.00 95 1049.3
20260831125645 74 237 0.0 0.0 0.00 0.14 0.00 96 1049.3
20260831125138 73 152 0.0 0.0 0.00 0.14 0.00 98 1049.2
20260831125121 73 153 0.0 0.0 0.00 0.14 0.00 99 1049.2
20260831124126 72 248 0.0 0.0 0.00 0.14 0.00 99 1049.2
20260831123620 71 247 0.0 0.0 0.00 0.14 0.00 99 1049.1
20260831123113 71 248 0.0 0.0 0.00 0.14 0.00 99 1049.1
20260831122603 71 247 0.0 0.0 0.00 0.14 0.00 99 1049.1
20260831122102 70 247 0.0 0.0 0.00 0.14 0.00 99 1048.8
20260831121556 70 239 0.0 0.0 0.00 0.14 0.00 99 1048.8
20260831121050 69 208 0.0 0.0 0.00 0.14 0.00 99 1048.8
20260831120544 69 208 0.0 0.0 0.00 0.14 0.00 99 1048.7
20260831120305 69 208 0.0 0.0 0.00 0.14 0.00 99 1048.7
20260831115531 69 208 0.0 0.0 0.00 0.14 0.00 99 1048.7
20260831115022 69 209 0.0 0.0 0.00 0.14 0.00 99 1048.7
20260831114520 68 208 0.0 0.0 0.00 0.14 0.00 99 1048.7
20260831114014 68 208 0.0 0.0 0.00 0.14 0.00 99 1048.7
20260831113508 68 208 0.0 0.0 0.00 0.14 0.00 99 1048.6
20260831113002 68 208 0.0 0.0 0.00 0.14 0.00 99 1048.6
20260831112456 68 208 0.0 0.0 0.00 0.14 0.00 99 1048.6
20260831111949 68 208 0.0 0.0 0.00 0.14 0.00 99 1048.5
20260831111439 68 208 0.0 0.0 0.00 0.14 0.00 99 1048.5
20260831110938 68 208 0.0 0.0 0.00 0.14 0.00 99 1048.5
20260831110432 68 208 0.0 0.0 0.00 0.14 0.00 99 1048.3
20260831110153 68 208 0.0 0.0 0.00 0.14 0.00 99 1048.3
20260831105642 68 208 0.0 0.0 0.00 0.14 0.00 99 1048.3
20260831104914 68 208 0.0 0.0 0.00 0.14 0.00 99 1048.1
20260831104408 68 208 0.0 0.0 0.00 0.14 0.00 99 1048.1
20260831103857 68 208 0.0 0.0 0.00 0.14 0.00 99 1048.1
20260831103356 68 208 0.0 0.0 0.00 0.14 0.00 99 1048.1
20260831103119 68 208 0.0 0.0 0.00 0.14 0.00 99 1048.1
20260831102344 68 208 0.0 0.0 0.00 0.14 0.00 99 1048.1
20260831101838 68 208 0.0 0.0 0.00 0.14 0.00 99 1048.1
20260831101332 68 208 0.0 0.0 0.00 0.14 0.00 99 1048.1
20260831100826 68 208 0.0 0.0 0.00 0.14 0.00 99 1047.7
20260831100315 68 208 0.0 0.0 0.00 0.14 0.00 99 1047.7
20260831100116 68 208 0.0 0.0 0.00 0.14 0.00 99 1047.7
20260831094802 68 208 0.0 0.0 0.00 0.14 0.00 99 1047.7
20260831094256 68 208 0.0 0.0 0.00 0.14 0.00 99 1047.7
20260831093745 68 208 0.0 0.0 0.00 0.14 0.00 99 1047.7
20260831093243 68 208 0.0 0.0 0.00 0.14 0.00 99 1047.7
20260831092737 68 208 0.0 0.0 0.00 0.14 0.00 99 1047.7
20260831092451 68 208 0.0 0.0 0.00 0.14 0.00 99 1047.6
20260831091727 68 208 0.0 0.0 0.00 0.14 0.00 99 1047.6
20260831091225 68 208 0.0 0.0 0.00 0.14 0.00 99 1047.6
20260831090725 68 208 0.0 0.0 0.00 0.14 0.00 99 1047.6
20260831090226 68 208 0.0 0.0 0.00 0.14 0.00 99 1047.6
20260831085725 68 208 0.0 0.0 0.00 0.14 0.00 99 1047.6
20260831085226 68 208 0.0 0.0 0.00 0.14 0.00 99 1047.6
20260831084726 68 208 0.0 0.0 0.00 0.14 0.00 99 1047.6
20260831084225 68 208 0.0 0.0 0.00 0.14 0.00 99 1047.6
20260831083725 68 208 0.0 0.0 0.00 0.14 0.00 99 1047.6
20260831083219 68 208 0.0 0.0 0.00 0.14 0.00 99 1047.6
20260831082709 68 208 0.0 0.0 0.00 0.14 0.00 99 1047.6
20260831082210 68 208 0.0 0.0 0.00 0.14 0.00 99 1047.6
20260831081709 68 208 0.0 0.0 0.00 0.14 0.00 99 1047.6
20260831081210 68 208 0.0 0.0 0.00 0.14 0.00 99 1047.6
20260831080709 68 208 0.0 0.0 0.00 0.14 0.00 99 1047.4
20260831080209 68 209 0.0 0.0 0.00 0.14 0.00 99 1047.4
20260831075710 68 208 0.0 0.0 0.00 0.14 0.00 99 1047.4
20260831075210 67 208 0.0 0.0 0.00 0.14 0.00 99 1047.2
20260831074709 68 208 0.0 0.0 0.00 0.14 0.00 99 1047.2
20260831074427 68 208 0.0 0.0 0.00 0.14 0.00 99 1047.2
20260831073651 68 208 0.0 0.0 0.00 0.14 0.00 99 1047.1
20260831073140 68 208 0.0 0.0 0.00 0.14 0.00 99 1047.1
20260831072629 68 208 0.0 0.0 0.00 0.14 0.00 99 1047.1
20260831072345 68 208 0.0 0.0 0.00 0.14 0.00 99 1047.2
20260831071618 68 208 0.0 0.0 0.00 0.14 0.00 99 1047.2
20260831071112 68 208 0.0 0.0 0.00 0.14 0.00 99 1047.2
20260831070828 68 208 0.0 0.0 0.00 0.14 0.00 99 1047.3
20260831070055 68 208 0.0 0.0 0.00 0.14 0.00 99 1047.3
20260831065553 68 208 0.0 0.0 0.00 0.14 0.00 98 1047.3
20260831065047 68 208 0.0 0.0 0.00 0.14 0.00 99 1047.3
20260831064537 68 208 0.0 0.0 0.00 0.14 0.00 99 1047.3
20260831064035 68 208 0.0 0.0 0.00 0.14 0.00 99 1047.3
20260831063529 68 208 0.0 0.0 0.00 0.14 0.00 99 1047.4
20260831063023 68 208 0.0 0.0 0.00 0.14 0.00 99 1047.4
20260831062513 68 208 0.0 0.0 0.00 0.14 0.00 99 1047.4
20260831062240 68 208 0.0 0.0 0.00 0.14 0.00 98 1047.5
20260831061506 69 208 0.0 0.0 0.00 0.14 0.00 98 1047.5
20260831061000 69 208 0.0 0.0 0.00 0.14 0.00 98 1047.5
20260831060454 69 208 0.0 0.0 0.00 0.14 0.00 98 1047.6
20260831055942 69 208 0.0 0.0 0.00 0.14 0.00 98 1047.6
20260831055437 69 208 0.0 0.0 0.00 0.14 0.00 99 1047.6
20260831055157 69 208 0.0 0.0 0.00 0.14 0.00 99 1047.6
20260831054654 69 208 0.0 0.0 0.00 0.14 0.00 99 1047.6
20260831053923 69 208 0.0 0.0 0.00 0.14 0.00 98 1047.6
20260831053417 69 208 0.0 0.0 0.00 0.14 0.00 98 1047.6
20260831052911 69 208 0.0 0.0 0.00 0.14 0.00 98 1047.6
20260831052400 69 208 0.0 0.0 0.00 0.14 0.00 99 1047.6
20260831051900 69 208 0.0 0.0 0.00 0.14 0.00 98 1047.6
20260831051624 69 208 0.0 0.0 0.00 0.14 0.00 98 1047.6
20260831051110 69 208 0.0 0.0 0.00 0.14 0.00 98 1047.7
20260831050338 69 208 0.0 0.0 0.00 0.14 0.00 98 1047.7
20260831045836 70 238 0.0 0.0 0.00 0.14 0.00 99 1047.7
20260831045331 70 238 0.0 0.0 0.00 0.14 0.00 99 1047.6
20260831045046 70 238 0.0 0.0 0.00 0.14 0.00 98 1047.6
20260831044545 70 238 0.0 0.0 0.00 0.14 0.00 99 1047.6
20260831043807 69 238 0.0 0.0 0.00 0.14 0.00 98 1047.7
20260831043536 69 238 0.0 0.0 0.00 0.14 0.00 98 1047.7
20260831042759 69 238 0.0 0.0 0.00 0.14 0.00 98 1047.7
20260831042255 69 238 0.0 0.0 0.00 0.14 0.00 98 1047.8
20260831041747 69 238 0.0 0.0 0.00 0.14 0.00 98 1047.8
20260831041237 69 238 0.0 0.0 0.00 0.14 0.00 98 1047.8
20260831040735 69 238 0.0 0.0 0.00 0.14 0.00 98 1047.7
20260831040450 69 238 0.0 0.0 0.00 0.14 0.00 98 1047.7
20260831035723 70 238 0.0 0.0 0.00 0.14 0.14 98 1047.7
20260831035436 70 238 0.0 0.0 0.00 0.14 0.14 98 1047.8
20260831034711 70 238 0.0 0.0 0.00 0.14 0.14 98 1047.8
20260831034205 70 238 0.0 0.0 0.00 0.14 0.14 98 1047.8
20260831033655 70 238 0.0 0.0 0.00 0.14 0.14 98 1048.0
20260831033153 70 238 0.0 0.0 0.00 0.14 0.14 98 1048.0
20260831032647 70 238 0.0 0.0 0.00 0.14 0.14 98 1048.0
20260831032136 70 238 0.0 0.0 0.00 0.14 0.14 98 1048.0
20260831031635 71 238 0.0 0.0 0.00 0.14 0.14 98 1048.0
20260831031128 71 238 0.0 0.0 0.00 0.14 0.14 98 1048.0
20260831030850 71 238 0.0 0.0 0.00 0.14 0.14 97 1048.0
20260831030113 71 238 0.0 0.0 0.00 0.14 0.14 98 1048.0
20260831025611 71 238 0.0 0.0 0.00 0.14 0.14 98 1048.0
20260831025105 71 238 0.0 0.0 0.00 0.14 0.14 98 1048.0
20260831024559 71 238 0.0 0.0 0.00 0.14 0.14 98 1048.0
20260831024052 71 238 0.0 0.0 0.00 0.14 0.14 98 1048.0
20260831023547 71 206 0.0 0.0 0.00 0.14 0.14 98 1048.0
20260831023303 71 206 0.0 0.0 0.00 0.14 0.14 98 1048.0
20260831021523 71 206 0.0 0.0 0.00 0.14 0.14 98 1048.1
20260831021017 71 206 0.0 0.0 0.00 0.14 0.14 97 1048.1
20260831020511 71 206 0.0 0.0 0.00 0.14 0.14 97 1048.1
20260831020004 71 206 0.0 0.0 0.00 0.14 0.14 97 1048.1
20260831015458 71 206 0.0 0.0 0.00 0.14 0.14 97 1048.1
20260831014949 71 206 0.0 0.0 0.00 0.14 0.14 97 1048.1
20260831014447 71 206 0.0 0.0 0.00 0.14 0.14 97 1048.1
20260831013940 71 206 0.0 0.0 0.00 0.14 0.14 97 1048.1
20260831013434 71 206 0.0 0.0 0.00 0.14 0.14 96 1048.1
20260831012928 71 206 0.0 0.0 0.00 0.14 0.14 96 1048.1
20260831012422 71 206 0.0 0.0 0.00 0.14 0.14 96 1048.1
20260831012139 71 206 0.0 0.0 0.00 0.14 0.14 97 1048.1
20260831011407 71 206 0.0 0.0 0.00 0.14 0.14 96 1048.1
20260831010905 71 206 0.0 0.0 0.00 0.14 0.14 96 1048.1
20260831010359 71 206 0.0 0.0 0.00 0.14 0.14 96 1047.9
20260831005853 71 206 0.0 0.0 0.00 0.14 0.14 96 1047.9
20260831005347 72 206 0.0 0.0 0.00 0.14 0.14 96 1047.6
20260831004840 71 155 0.0 0.0 0.00 0.14 0.14 96 1047.6
20260831004334 71 155 0.0 0.0 0.00 0.14 0.14 95 1047.6
20260831004053 72 155 0.0 0.0 0.00 0.14 0.14 95 1047.4
20260831003321 72 155 0.0 0.0 0.00 0.14 0.14 95 1047.4
20260831002813 72 155 0.0 0.0 0.00 0.14 0.14 95 1047.4
20260831002309 72 155 0.0 0.0 0.00 0.14 0.14 94 1047.1
20260831001807 73 155 0.0 0.0 0.00 0.14 0.14 94 1047.1
20260831001306 73 155 0.0 0.0 0.00 0.14 0.14 94 1047.1
20260831000807 73 155 0.0 0.0 0.00 0.14 0.14 94 1047.1
20260831000306 74 155 0.0 0.0 0.00 0.14 0.14 93 1047.1
20260830235806 74 155 0.0 0.0 0.00 0.14 0.14 93 1047.1
20260830235307 74 155 0.0 0.0 0.00 0.14 0.14 93 1047.1
20260830235024 75 155 0.0 0.0 0.00 0.14 0.14 92 1047.1
20260830234307 75 155 0.0 0.0 0.00 0.14 0.14 92 1047.1
20260830234021 76 155 0.0 0.0 0.00 0.14 0.14 91 1047.1
20260830233250 76 155 0.0 0.0 0.00 0.14 0.14 90 1047.1
20260830232751 77 155 0.0 0.0 0.00 0.14 0.14 90 1047.1
20260830232250 78 155 0.0 0.0 0.00 0.14 0.14 89 1047.1
20260830231751 79 155 0.0 1.0 0.00 0.14 0.14 87 1047.1
20260830231250 80 155 0.0 1.0 0.00 0.14 0.14 87 1047.1
20260830230751 80 155 0.0 1.0 0.00 0.14 0.14 85 1047.1
20260830230510 81 155 0.0 1.0 0.00 0.14 0.14 85 1047.1
20260830225750 82 155 0.0 1.0 0.00 0.14 0.14 85 1047.1
20260830225251 82 155 0.0 1.0 0.00 0.14 0.14 83 1047.1
20260830224744 82 34 0.0 0.0 0.00 0.14 0.14 85 1047.1
20260830224713 82 34 0.0 0.0 0.00 0.14 0.14 85 1047.1
20260830223720 82 34 0.0 0.0 0.00 0.14 0.14 85 1047.1
20260830223212 82 34 0.0 1.0 0.00 0.14 0.14 84 1047.1
20260830222706 82 34 0.0 1.0 0.00 0.14 0.14 84 1047.1
20260830222201 82 20 0.0 1.0 0.00 0.14 0.14 85 1047.0
20260830221655 82 20 0.0 1.0 0.00 0.14 0.14 85 1047.0
20260830221643 82 21 0.0 3.0 0.00 0.14 0.14 85 1047.0
20260830220642 82 117 0.0 3.0 0.01 0.14 0.14 85 1047.0
20260830220136 82 132 0.0 3.0 0.03 0.14 0.14 85 1047.0
20260830215630 82 194 0.0 3.0 0.06 0.14 0.14 85 1047.0
20260830215120 82 107 1.0 4.0 0.06 0.14 0.14 85 1046.9
20260830214618 81 151 2.0 8.0 0.06 0.14 0.14 86 1046.9
20260830214112 81 195 2.0 8.0 0.06 0.14 0.14 87 1046.9
20260830213606 81 157 1.0 4.0 0.06 0.14 0.14 89 1046.9
20260830213101 80 190 0.0 1.0 0.06 0.14 0.14 92 1046.9
20260830212554 79 268 0.0 0.0 0.06 0.14 0.14 93 1046.9
20260830212047 78 268 0.0 0.0 0.06 0.14 0.14 92 1047.0
20260830211539 78 268 0.0 0.0 0.06 0.14 0.14 91 1047.0
20260830211036 79 267 0.0 0.0 0.06 0.14 0.14 89 1047.0
20260830210752 80 271 0.0 2.0 0.05 0.13 0.13 88 1047.1
20260830210024 81 264 0.0 2.0 0.03 0.11 0.11 86 1047.1
20260830205519 82 273 0.0 0.0 0.00 0.08 0.08 83 1047.1
20260830205007 82 328 0.0 0.0 0.00 0.08 0.08 82 1046.6
20260830204507 83 17 0.0 0.0 0.00 0.08 0.08 80 1046.6
20260830204000 84 17 0.0 3.0 0.00 0.08 0.08 79 1046.6
20260830203455 84 93 0.0 3.0 0.00 0.08 0.08 79 1046.9
20260830202948 85 213 1.0 6.0 0.00 0.08 0.08 79 1046.9
20260830202705 85 123 2.0 6.0 0.00 0.08 0.08 77 1046.9
20260830201935 86 130 2.0 6.0 0.00 0.08 0.08 77 1046.9
20260830201425 86 209 1.0 6.0 0.00 0.08 0.08 77 1046.9
20260830200921 85 68 1.0 6.0 0.00 0.08 0.08 79 1046.9
20260830200452 85 103 2.0 7.0 0.00 0.08 0.08 79 1047.1
20260830195407 84 235 1.0 5.0 0.00 0.08 0.08 82 1047.1
20260830195125 84 296 1.0 5.0 0.00 0.08 0.08 81 1047.1
20260830194854 85 234 1.0 7.0 0.00 0.08 0.08 80 1047.1
20260830193908 86 285 1.0 7.0 0.00 0.08 0.08 80 1047.1
20260830193407 86 45 2.0 8.0 0.00 0.08 0.08 78 1047.2
20260830192908 87 29 2.0 11.0 0.00 0.08 0.08 76 1047.2
20260830192408 87 227 2.0 11.0 0.00 0.08 0.08 75 1047.2
20260830191908 88 252 1.0 3.0 0.00 0.08 0.08 69 1047.2
20260830191629 87 236 1.0 4.0 0.00 0.08 0.08 72 1047.2
20260830190849 85 199 1.0 4.0 0.00 0.08 0.08 74 1047.6
20260830190338 84 134 0.0 0.0 0.00 0.08 0.08 74 1047.6
20260830185826 83 227 0.0 0.0 0.00 0.08 0.08 83 1047.6
20260830185314 83 227 0.0 0.0 0.00 0.08 0.08 82 1048.0
20260830184807 83 227 0.0 0.0 0.00 0.08 0.08 84 1048.0
20260830184307 83 227 0.0 0.0 0.00 0.08 0.08 83 1048.0
20260830184026 83 227 0.0 0.0 0.00 0.08 0.08 80 1048.1
20260830183307 85 227 0.0 0.0 0.00 0.08 0.08 77 1048.1
20260830182808 85 227 0.0 1.0 0.00 0.08 0.08 75 1048.1
20260830182307 85 248 1.0 4.0 0.00 0.08 0.08 69 1048.1
20260830181805 85 205 1.0 5.0 0.00 0.08 0.08 71 1048.1
20260830181537 85 143 2.0 5.0 0.00 0.08 0.08 71 1048.1
20260830180805 85 157 2.0 6.0 0.00 0.08 0.08 73 1048.1
20260830180304 85 211 2.0 6.0 0.00 0.08 0.08 73 1048.1
20260830175754 85 232 2.0 5.0 0.00 0.08 0.08 76 1048.1
20260830175251 85 146 1.0 4.0 0.00 0.08 0.08 78 1048.5
20260830174746 85 74 1.0 4.0 0.00 0.08 0.08 76 1048.5
20260830174239 84 84 1.0 3.0 0.06 0.08 0.08 81 1048.5
20260830173956 83 94 0.0 3.0 0.08 0.08 0.08 87 1048.7
20260830173222 81 150 0.0 2.0 0.08 0.08 0.08 87 1048.7
20260830172721 80 157 1.0 4.0 0.08 0.08 0.08 89 1048.7
20260830172210 79 223 1.0 4.0 0.08 0.08 0.08 91 1048.8
20260830171709 78 151 1.0 4.0 0.08 0.08 0.08 92 1048.8
20260830171203 78 71 0.0 0.0 0.08 0.08 0.08 92 1048.8
20260830170657 78 71 0.0 0.0 0.08 0.08 0.08 92 1049.2
20260830170151 78 71 0.0 0.0 0.08 0.08 0.08 91 1049.2
20260830165641 78 22 0.0 1.0 0.08 0.08 0.08 89 1049.2
20260830165139 79 21 1.0 2.0 0.08 0.08 0.08 87 1049.3
20260830164633 81 16 1.0 7.0 0.07 0.07 0.08 84 1049.3
20260830164127 84 349 1.0 7.0 0.01 0.01 0.02 75 1049.3
20260830163621 85 229 2.0 4.0 0.00 0.00 0.00 73 1049.3
20260830163116 85 180 2.0 6.0 0.00 0.00 0.00 71 1049.3
20260830162838 86 226 3.0 7.0 0.00 0.00 0.00 71 1049.3
20260830162059 87 260 3.0 7.0 0.00 0.00 0.00 69 1049.4
20260830161557 86 158 2.0 7.0 0.00 0.00 0.00 72 1049.4
20260830161051 86 123 3.0 8.0 0.00 0.00 0.00 71 1049.4
20260830160545 86 160 3.0 8.0 0.00 0.00 0.00 73 1049.6
20260830160039 86 243 3.0 8.0 0.00 0.00 0.00 73 1049.6
20260830155533 85 257 3.0 8.0 0.00 0.00 0.00 74 1049.6
20260830155027 85 113 2.0 8.0 0.00 0.00 0.00 74 1049.8
20260830154517 84 200 2.0 8.0 0.00 0.00 0.00 75 1049.8
20260830154016 83 228 4.0 10.0 0.00 0.00 0.00 76 1049.8
20260830153504 83 178 4.0 10.0 0.00 0.00 0.00 76 1049.8
20260830153005 83 212 3.0 9.0 0.00 0.00 0.00 76 1049.8
20260830152457 82 182 3.0 6.0 0.00 0.00 0.00 77 1049.8
20260830152214 81 238 3.0 7.0 0.00 0.00 0.00 80 1049.8